Tracking 35237 objects as of 5-Sep-2026
HD Live streaming from Space Station
objects crossing your sky now

HYPE


HYPE is no longer on orbit
HYPE is classified as:


NORAD ID: 62687
Int'l Code: 2025-009CG
Launch date: January 14, 2025
Source: POLAND (POL)
Launch site: AIR FORCE WESTERN TEST RANGE (AFWTR)
Decay date: 2025-12-09

Uplink (MHz):
Downlink (MHz): 437.400
Beacon (MHz):
Mode: 9k6 GFSK LoRa
Call sign:
Status: Inactive

Your satellite tracking list
Your tracking list is empty




NASA's NSSDC Master Catalog

Two Line Element Set (TLE):
1 62687U 25009CG  25342.99077692  .17641269  25287-5  97681-3 0  9999
2 62687  97.3891  69.7424 0010293 277.6471  82.3660 16.41473001 50400
Source of the keplerian elements: AFSPC